#timestamp,LO_Frequency,Hit,StdDev 
1524027615.4,286046998.1,N
1524027635.2,286047000.6,N
1524027655.1,286047000.2,N
1524027656.0,286047000.2,N
1524027675.8,286047002.4,N
1524027695.7,286047001.6,N
1524027715.5,286047002.3,N
1524027735.3,286046999.8,N
1524027755.2,286047002.2,N
1524027775.0,286047001.9,N
1524027775.9,286047001.9,N
1524027795.8,286047001.3,N
1524027815.6,286047003.7,N
1524027835.4,286047003.9,N
1524027855.3,286047002.3,N
1524027875.1,286047002.4,N
1524027895.9,286046999.9,N
1524027915.7,286047000.0,N
1524027935.5,286047002.8,N
1524027955.4,286047000.1,N
1524027975.2,286046999.7,N
1524027995.0,286047002.8,N
1524027995.9,286047002.8,N
1524028015.8,286046999.7,N
1524028035.6,286047002.7,N
1524028055.5,286047002.6,N
1524028075.3,286047002.6,N
1524028095.1,286047000.2,N
1524028115.9,286046999.9,N
1524028135.7,286047002.3,N
1524028155.5,286047002.7,N
1524028175.4,286047002.1,N
1524028195.2,286047002.7,N
1524028215.1,286047001.8,N
1524028216.0,286047001.8,N
1524028235.8,286047001.9,N
1524028255.6,286047002.5,N
1524028275.5,286047001.8,N
1524028295.3,286047002.4,N
1524028315.2,286046999.8,N
1524028335.9,286047002.2,N
1524028355.7,286047000.5,N
1524028375.6,286047000.1,N
1524028395.4,286047002.7,N
1524028415.2,286047000.1,N
1524028435.1,286047002.0,N
1524028436.0,286047002.0,N
1524028455.8,286047002.6,N
1524028475.7,286047002.5,N
1524028495.5,286047001.8,N
1524028515.3,286047004.3,Y
1524028535.2,286046999.8,P
1524028555.0,286047000.0,N
1524028555.9,286047000.0,N
1524028575.8,286047000.1,N
1524028595.6,286047000.4,N
1524028615.4,286047001.2,N
1524028635.3,286046998.5,N
1524028655.1,286046999.3,N
1524028675.8,286047001.0,N
1524028695.7,286047001.0,N
1524028715.5,286047000.4,N
1524028735.4,286046998.8,N
1524028755.2,286046999.1,N
1524028775.0,286046998.4,N
1524028775.9,286046998.4,N
1524028795.8,286046998.9,N
1524028815.6,286047000.8,N
1524028835.5,286047000.9,N
1524028855.3,286047000.4,N
1524028875.1,286047002.8,N
1524028895.9,286047001.9,N
1524028915.7,286047000.9,N
1524028935.5,286047000.0,N
1524028955.4,286047000.2,N
1524028975.2,286047000.1,N
1524028995.1,286046999.7,N
1524028996.0,286046999.7,N
1524029015.8,286047001.5,N
1524029035.6,286047002.5,N
1524029055.5,286047002.5,N
1524029075.3,286047000.3,N
1524029095.2,286047002.4,N
1524029115.9,286047004.3,Y
1524029135.7,286047002.7,P
1524029155.6,286047001.4,N
1524029175.4,286047001.9,N
1524029195.3,286047004.0,Y
1524029215.1,286047002.8,P
1524029216.0,286047002.8,P
1524029235.8,286046999.8,N
1524029255.7,286047001.0,N
1524029275.5,286047001.2,N
1524029295.4,286046998.2,N
1524029315.2,286046998.4,N
1524029335.0,286046998.8,N
1524029335.9,286046998.8,N
1524029355.8,286046999.2,N
1524029375.6,286046998.4,N
1524029395.4,286046999.2,N
1524029415.3,286046999.4,N
1524029435.1,286046998.9,N
1524029455.9,286046997.6,N
1524029475.7,286046997.3,N
1524029495.5,286046999.1,N
1524029515.4,286046998.6,N
1524029535.2,286046999.0,N
1524029555.0,286046998.1,N
1524029555.9,286046998.1,N
1524029575.8,286046998.5,N
1524029595.6,286046998.7,N
1524029615.5,286046998.6,N
1524029635.3,286046998.8,N
1524029655.1,286046999.5,N
1524029675.9,286046994.9,Y
1524029695.7,286046996.7,P
1524029715.5,286046998.6,N
1524029735.4,286046998.4,N
1524029755.2,286046998.6,N
1524029775.1,286046998.7,N
1524029776.0,286046998.7,N
1524029795.8,286046999.6,N
1524029815.6,286046998.9,N
1524029835.5,286046998.3,N
1524029855.3,286046996.9,Y
1524029875.2,286046999.2,P
1524029895.9,286046999.9,N
1524029915.7,286047000.2,N
1524029935.6,286046998.1,Y
1524029955.4,286047002.8,P
1524029975.2,286047001.0,N
1524029995.1,286047002.4,N
1524029996.0,286047002.4,N
1524030015.8,286047000.2,N
1524030035.7,286047002.2,N
1524030055.5,286047002.6,N
1524030075.3,286047002.0,N
1524030095.2,286047000.8,N
1524030115.0,286046998.4,N
1524030115.9,286046998.4,N
1524030135.7,286046998.6,N
1524030155.6,286046999.1,N
1524030175.4,286046999.6,N
1524030195.3,286046998.3,N
1524030215.1,286046998.1,N
1524030235.8,286046998.4,N
1524030255.7,286046998.4,N
1524030275.5,286046998.8,N
1524030295.3,286046998.9,N
1524030315.2,286046997.8,N
1524030335.0,286046995.1,N
1524030335.9,286046995.1,N
1524030355.8,286046996.4,N
1524030375.6,286046995.2,N
1524030395.4,286046994.9,N
1524030415.3,286046997.8,N
1524030435.1,286046997.8,N
1524030455.9,286046997.1,N
1524030475.7,286046998.0,N
1524030495.5,286046997.4,N
1524030515.4,286046997.5,N
1524030535.2,286046996.7,N
1524030555.0,286046997.1,N
1524030555.9,286046997.1,N
1524030575.8,286046999.6,N
1524030595.6,286046997.3,N
1524030615.5,286046997.4,N
1524030635.3,286046999.0,N
1524030655.1,286046997.5,N
1524030675.9,286046997.3,N
1524030695.7,286046997.2,N
1524030715.5,286046997.8,N
1524030735.4,286046997.8,N
1524030755.2,286046997.5,N
1524030775.1,286046997.9,N
1524030776.0,286046997.9,N
1524030795.8,286046995.1,Y
1524030815.6,286046996.5,P
1524030835.5,286046996.9,P
1524030855.3,286046999.2,N
1524030875.1,286046996.9,Y
1524030895.9,286046998.1,P
1524030915.7,286046998.6,P
1524030935.6,286047000.3,N
1524030955.4,286047001.5,N
1524030975.2,286047003.2,N
1524030995.1,286047003.6,N
1524030996.0,286047003.6,N
1524031015.8,286047003.7,N
1524031035.7,286047003.1,N
1524031055.5,286047001.3,N
1524031075.3,286046999.8,N
1524031095.2,286047002.1,N
1524031115.0,286047004.3,N
1524031115.9,286047004.3,N
1524031135.8,286047001.7,N
1524031155.6,286047004.1,N
1524031175.4,286047001.9,N
1524031195.3,286047000.4,N
